owner,sensor,date,latitude,longitude,air_pressure(mBar),qcFlag 
TABS,ioos:station:wmo:42047:1,2016-04-01T00:00:00Z,27.8966,-93.5973,1005.24,11111222 
TABS,ioos:station:wmo:42047:1,2016-04-01T00:30:00Z,27.8966,-93.5973,1005.63,11111222 
TABS,ioos:station:wmo:42047:1,2016-04-01T01:00:00Z,27.8966,-93.5973,1005.77,11111222 
TABS,ioos:station:wmo:42047:1,2016-04-01T01:30:00Z,27.8966,-93.5973,1006.23,11111222 
TABS,ioos:station:wmo:42047:1,2016-04-01T02:00:00Z,27.8966,-93.5973,1006.37,11111222 
TABS,ioos:station:wmo:42047:1,2016-04-01T02:30:00Z,27.8966,-93.5973,1006.75,11111222 
TABS,ioos:station:wmo:42047:1,2016-04-01T03:00:00Z,27.8966,-93.5973,1007.1,11111222 
TABS,ioos:station:wmo:42047:1,2016-04-01T03:30:00Z,27.8966,-93.5973,1007.4,11111222 
TABS,ioos:station:wmo:42047:1,2016-04-01T04:00:00Z,27.8966,-93.5973,1007.33,11111222 
TABS,ioos:station:wmo:42047:1,2016-04-01T04:30:00Z,27.8966,-93.5973,1007.15,11111222 
TABS,ioos:station:wmo:42047:1,2016-04-01T05:00:00Z,27.8966,-93.5973,1006.93,11111222 
TABS,ioos:station:wmo:42047:1,2016-04-01T05:30:00Z,27.8966,-93.5973,1006.89,11111222 
TABS,ioos:station:wmo:42047:1,2016-04-01T06:00:00Z,27.8966,-93.5973,1006.6,11111222 
TABS,ioos:station:wmo:42047:1,2016-04-01T06:30:00Z,27.8966,-93.5973,1006.31,11111222 
TABS,ioos:station:wmo:42047:1,2016-04-01T07:00:00Z,27.8966,-93.5973,1006.33,11111222 
TABS,ioos:station:wmo:42047:1,2016-04-01T07:30:00Z,27.8966,-93.5973,1007.05,11111222 
TABS,ioos:station:wmo:42047:1,2016-04-01T08:00:00Z,27.8966,-93.5973,1006.51,11111222 
TABS,ioos:station:wmo:42047:1,2016-04-01T08:30:00Z,27.8966,-93.5973,1005.57,11111222 
TABS,ioos:station:wmo:42047:1,2016-04-01T09:00:00Z,27.8966,-93.5973,1006.85,11111222 
TABS,ioos:station:wmo:42047:1,2016-04-01T09:30:00Z,27.8966,-93.5973,1007.54,11111222 
TABS,ioos:station:wmo:42047:1,2016-04-01T10:00:00Z,27.8966,-93.5973,1006.94,11111222 
TABS,ioos:station:wmo:42047:1,2016-04-01T10:30:00Z,27.8966,-93.5973,1006.88,11111222 
TABS,ioos:station:wmo:42047:1,2016-04-01T11:00:00Z,27.8966,-93.5973,1007.46,11111222 
TABS,ioos:station:wmo:42047:1,2016-04-01T11:30:00Z,27.8966,-93.5973,1007.1,11111222 
TABS,ioos:station:wmo:42047:1,2016-04-01T12:00:00Z,27.8966,-93.5973,1005.9,11111222 
TABS,ioos:station:wmo:42047:1,2016-04-01T12:30:00Z,27.8966,-93.5973,1006.42,11111222 
TABS,ioos:station:wmo:42047:1,2016-04-01T13:00:00Z,27.8966,-93.5973,1006.5,11111222 
TABS,ioos:station:wmo:42047:1,2016-04-01T13:30:00Z,27.8966,-93.5973,1006.21,11111222 
TABS,ioos:station:wmo:42047:1,2016-04-01T14:00:00Z,27.8966,-93.5973,1006.25,11111222 
TABS,ioos:station:wmo:42047:1,2016-04-01T14:30:00Z,27.8966,-93.5973,1006.64,11111222 
TABS,ioos:station:wmo:42047:1,2016-04-01T15:00:00Z,27.8966,-93.5973,1007.2,11111222 
TABS,ioos:station:wmo:42047:1,2016-04-01T15:30:00Z,27.8966,-93.5973,1007.59,11111222 
TABS,ioos:station:wmo:42047:1,2016-04-01T16:00:00Z,27.8966,-93.5973,1007.56,11111222 
TABS,ioos:station:wmo:42047:1,2016-04-01T16:30:00Z,27.8966,-93.5973,1007.43,11111222 
TABS,ioos:station:wmo:42047:1,2016-04-01T17:00:00Z,27.8966,-93.5973,1007.81,11111222 
TABS,ioos:station:wmo:42047:1,2016-04-02T00:00:00Z,27.8966,-93.5973,1009.79,11111222 
TABS,ioos:station:wmo:42047:1,2016-04-02T00:30:00Z,27.8966,-93.5973,1010.48,11111222 
TABS,ioos:station:wmo:42047:1,2016-04-02T01:00:00Z,27.8966,-93.5973,1010.86,11111222 
TABS,ioos:station:wmo:42047:1,2016-04-02T01:30:00Z,27.8966,-93.5973,1012.23,11111222 
TABS,ioos:station:wmo:42047:1,2016-04-02T02:00:00Z,27.8966,-93.5973,1012.6,11111222 
TABS,ioos:station:wmo:42047:1,2016-04-02T02:30:00Z,27.8966,-93.5973,1013.36,11111222 
TABS,ioos:station:wmo:42047:1,2016-04-02T03:00:00Z,27.8966,-93.5973,1014.01,11111222 
TABS,ioos:station:wmo:42047:1,2016-04-02T03:30:00Z,27.8966,-93.5973,1013.62,11111222 
TABS,ioos:station:wmo:42047:1,2016-04-02T04:00:00Z,27.8966,-93.5973,1013.81,11111222 
TABS,ioos:station:wmo:42047:1,2016-04-02T04:30:00Z,27.8966,-93.5973,1013.8,11111222 
TABS,ioos:station:wmo:42047:1,2016-04-02T05:00:00Z,27.8966,-93.5973,1014.76,11111222 
TABS,ioos:station:wmo:42047:1,2016-04-02T05:30:00Z,27.8966,-93.5973,1015.22,11111222 
TABS,ioos:station:wmo:42047:1,2016-04-02T06:00:00Z,27.8966,-93.5973,1015.19,11111222 
TABS,ioos:station:wmo:42047:1,2016-04-02T06:30:00Z,27.8966,-93.5973,1014.64,11111222 
TABS,ioos:station:wmo:42047:1,2016-04-02T07:00:00Z,27.8966,-93.5973,1014.01,11111222 
TABS,ioos:station:wmo:42047:1,2016-04-02T07:30:00Z,27.8966,-93.5973,1014.9,11111222 
TABS,ioos:station:wmo:42047:1,2016-04-02T08:00:00Z,27.8966,-93.5973,1015.66,11111222 
TABS,ioos:station:wmo:42047:1,2016-04-03T23:30:00Z,27.8966,-93.5973,1021.2,11111222 
TABS,ioos:station:wmo:42047:1,2016-04-04T00:00:00Z,27.8966,-93.5973,1021.49,11111222 
TABS,ioos:station:wmo:42047:1,2016-04-04T00:30:00Z,27.8966,-93.5973,1021.6,11111222 
TABS,ioos:station:wmo:42047:1,2016-04-04T01:00:00Z,27.8966,-93.5973,1021.88,11111222 
TABS,ioos:station:wmo:42047:1,2016-04-04T01:30:00Z,27.8966,-93.5973,1021.99,11111222 
TABS,ioos:station:wmo:42047:1,2016-04-04T02:00:00Z,27.8966,-93.5973,1022.41,11111222 
TABS,ioos:station:wmo:42047:1,2016-04-04T02:30:00Z,27.8966,-93.5973,1022.69,11111222 
TABS,ioos:station:wmo:42047:1,2016-04-04T03:00:00Z,27.8966,-93.5973,1022.94,11111222 
TABS,ioos:station:wmo:42047:1,2016-04-04T03:30:00Z,27.8966,-93.5973,1023.05,11111222 
TABS,ioos:station:wmo:42047:1,2016-04-04T04:00:00Z,27.8966,-93.5973,1022.93,11111222 
TABS,ioos:station:wmo:42047:1,2016-04-04T04:30:00Z,27.8966,-93.5973,1022.94,11111222 
TABS,ioos:station:wmo:42047:1,2016-04-04T05:00:00Z,27.8966,-93.5973,1023.04,11111222 
TABS,ioos:station:wmo:42047:1,2016-04-04T05:30:00Z,27.8966,-93.5973,1022.7,11111222 
TABS,ioos:station:wmo:42047:1,2016-04-04T06:00:00Z,27.8966,-93.5973,1022.32,11111222 
TABS,ioos:station:wmo:42047:1,2016-04-04T06:30:00Z,27.8966,-93.5973,1022.13,11111222 
TABS,ioos:station:wmo:42047:1,2016-04-04T07:00:00Z,27.8966,-93.5973,1021.98,11111222 
TABS,ioos:station:wmo:42047:1,2016-04-04T07:30:00Z,27.8966,-93.5973,1021.86,11111222 
TABS,ioos:station:wmo:42047:1,2016-04-04T08:00:00Z,27.8966,-93.5973,1021.63,11111222 
TABS,ioos:station:wmo:42047:1,2016-04-04T08:30:00Z,27.8966,-93.5973,1021.5,11111222 
TABS,ioos:station:wmo:42047:1,2016-04-04T09:00:00Z,27.8966,-93.5973,1021.16,11111222 
TABS,ioos:station:wmo:42047:1,2016-04-04T09:30:00Z,27.8966,-93.5973,1021.27,11111222 
TABS,ioos:station:wmo:42047:1,2016-04-04T10:00:00Z,27.8966,-93.5973,1021.27,11111222 
TABS,ioos:station:wmo:42047:1,2016-04-04T10:30:00Z,27.8966,-93.5973,1021.33,11111222 
TABS,ioos:station:wmo:42047:1,2016-04-04T11:00:00Z,27.8966,-93.5973,1021.51,11111222 
TABS,ioos:station:wmo:42047:1,2016-04-04T11:30:00Z,27.8966,-93.5973,1021.93,11111222 
TABS,ioos:station:wmo:42047:1,2016-04-04T12:00:00Z,27.8966,-93.5973,1022.24,11111222 
TABS,ioos:station:wmo:42047:1,2016-04-04T12:30:00Z,27.8966,-93.5973,1022.49,11111222 
TABS,ioos:station:wmo:42047:1,2016-04-04T13:00:00Z,27.8966,-93.5973,1022.93,11111222 
TABS,ioos:station:wmo:42047:1,2016-04-04T13:30:00Z,27.8966,-93.5973,1023.07,11111222 
TABS,ioos:station:wmo:42047:1,2016-04-04T14:00:00Z,27.8966,-93.5973,1023.46,11111222 
TABS,ioos:station:wmo:42047:1,2016-04-04T14:30:00Z,27.8966,-93.5973,1023.58,11111222 
TABS,ioos:station:wmo:42047:1,2016-04-04T15:00:00Z,27.8966,-93.5973,1023.87,11111222 
TABS,ioos:station:wmo:42047:1,2016-04-04T15:30:00Z,27.8966,-93.5973,1024.07,11111222 
TABS,ioos:station:wmo:42047:1,2016-04-04T16:00:00Z,27.8966,-93.5973,1024.42,11111222 
TABS,ioos:station:wmo:42047:1,2016-04-04T16:30:00Z,27.8966,-93.5973,1024.35,11111222 
TABS,ioos:station:wmo:42047:1,2016-04-04T17:00:00Z,27.8966,-93.5973,1024.27,11111222 
TABS,ioos:station:wmo:42047:1,2016-04-04T17:30:00Z,27.8966,-93.5973,1024.06,11111222 
TABS,ioos:station:wmo:42047:1,2016-04-04T18:00:00Z,27.8966,-93.5973,1023.92,11111222 
TABS,ioos:station:wmo:42047:1,2016-04-04T18:30:00Z,27.8966,-93.5973,1023.74,11111222 
TABS,ioos:station:wmo:42047:1,2016-04-04T19:00:00Z,27.8966,-93.5973,1023.36,11111222 
TABS,ioos:station:wmo:42047:1,2016-04-04T19:30:00Z,27.8966,-93.5973,1023.05,11111222 
TABS,ioos:station:wmo:42047:1,2016-04-04T20:00:00Z,27.8966,-93.5973,1022.8,11111222 
TABS,ioos:station:wmo:42047:1,2016-04-04T20:30:00Z,27.8966,-93.5973,1022.53,11111222 
TABS,ioos:station:wmo:42047:1,2016-04-04T21:00:00Z,27.8966,-93.5973,1022.22,11111222 
TABS,ioos:station:wmo:42047:1,2016-04-04T21:30:00Z,27.8966,-93.5973,1021.91,11111222 
TABS,ioos:station:wmo:42047:1,2016-04-04T22:00:00Z,27.8966,-93.5973,1021.88,11111222 
TABS,ioos:station:wmo:42047:1,2016-04-04T22:30:00Z,27.8966,-93.5973,1021.84,11111222 
TABS,ioos:station:wmo:42047:1,2016-04-04T23:00:00Z,27.8966,-93.5973,1022.08,11111222 
TABS,ioos:station:wmo:42047:1,2016-04-04T23:30:00Z,27.8966,-93.5973,1021.99,11111222 
TABS,ioos:station:wmo:42047:1,2016-04-05T00:00:00Z,27.8966,-93.5973,1022.07,11111222 
TABS,ioos:station:wmo:42047:1,2016-04-05T00:30:00Z,27.8966,-93.5973,1022.16,11111222 
TABS,ioos:station:wmo:42047:1,2016-04-05T01:00:00Z,27.8966,-93.5973,1022.45,11111222 
TABS,ioos:station:wmo:42047:1,2016-04-05T01:30:00Z,27.8966,-93.5973,1022.48,11111222 
TABS,ioos:station:wmo:42047:1,2016-04-05T02:00:00Z,27.8966,-93.5973,1022.88,11111222 
TABS,ioos:station:wmo:42047:1,2016-04-05T02:30:00Z,27.8966,-93.5973,1023.24,11111222 
TABS,ioos:station:wmo:42047:1,2016-04-05T03:00:00Z,27.8966,-93.5973,1023.51,11111222 
TABS,ioos:station:wmo:42047:1,2016-04-05T03:30:00Z,27.8966,-93.5973,1023.61,11111222 
TABS,ioos:station:wmo:42047:1,2016-04-05T04:00:00Z,27.8966,-93.5973,1023.45,11111222 
TABS,ioos:station:wmo:42047:1,2016-04-05T04:30:00Z,27.8966,-93.5973,1023.23,11111222 
TABS,ioos:station:wmo:42047:1,2016-04-05T05:00:00Z,27.8966,-93.5973,1023.2,11111222 
TABS,ioos:station:wmo:42047:1,2016-04-05T05:30:00Z,27.8966,-93.5973,1023.13,11111222 
TABS,ioos:station:wmo:42047:1,2016-04-05T06:00:00Z,27.8966,-93.5973,1022.95,11111222 
TABS,ioos:station:wmo:42047:1,2016-04-05T06:30:00Z,27.8966,-93.5973,1022.61,11111222 
TABS,ioos:station:wmo:42047:1,2016-04-05T07:00:00Z,27.8966,-93.5973,1022.27,11111222 
TABS,ioos:station:wmo:42047:1,2016-04-05T07:30:00Z,27.8966,-93.5973,1022.22,11111222 
TABS,ioos:station:wmo:42047:1,2016-04-05T08:00:00Z,27.8966,-93.5973,1022.18,11111222 
TABS,ioos:station:wmo:42047:1,2016-04-05T08:30:00Z,27.8966,-93.5973,1022.18,11111222 
TABS,ioos:station:wmo:42047:1,2016-04-05T09:00:00Z,27.8966,-93.5973,1022.31,11111222 
TABS,ioos:station:wmo:42047:1,2016-04-05T09:30:00Z,27.8966,-93.5973,1022.21,11111222 
TABS,ioos:station:wmo:42047:1,2016-04-05T10:00:00Z,27.8966,-93.5973,1022.36,11111222 
TABS,ioos:station:wmo:42047:1,2016-04-05T10:30:00Z,27.8966,-93.5973,1022.51,11111222 
TABS,ioos:station:wmo:42047:1,2016-04-05T11:00:00Z,27.8966,-93.5973,1022.88,11111222 
TABS,ioos:station:wmo:42047:1,2016-04-05T11:30:00Z,27.8966,-93.5973,1023.29,11111222 
TABS,ioos:station:wmo:42047:1,2016-04-05T12:00:00Z,27.8966,-93.5973,1023.63,11111222 
TABS,ioos:station:wmo:42047:1,2016-04-05T12:30:00Z,27.8966,-93.5973,1023.98,11111222 
TABS,ioos:station:wmo:42047:1,2016-04-05T13:00:00Z,27.8966,-93.5973,1024.07,11111222 
TABS,ioos:station:wmo:42047:1,2016-04-05T13:30:00Z,27.8966,-93.5973,1024.21,11111222 
TABS,ioos:station:wmo:42047:1,2016-04-05T14:00:00Z,27.8966,-93.5973,1024.42,11111222 
TABS,ioos:station:wmo:42047:1,2016-04-05T14:30:00Z,27.8966,-93.5973,1024.66,11111222 
TABS,ioos:station:wmo:42047:1,2016-04-05T15:00:00Z,27.8966,-93.5973,1024.83,11111222 
TABS,ioos:station:wmo:42047:1,2016-04-05T15:30:00Z,27.8966,-93.5973,1025.15,11111222 
TABS,ioos:station:wmo:42047:1,2016-04-05T16:00:00Z,27.8966,-93.5973,1025.14,11111222 
TABS,ioos:station:wmo:42047:1,2016-04-05T16:30:00Z,27.8966,-93.5973,1025.05,11111222 
TABS,ioos:station:wmo:42047:1,2016-04-05T17:00:00Z,27.8966,-93.5973,1024.82,11111222 
TABS,ioos:station:wmo:42047:1,2016-04-05T17:30:00Z,27.8966,-93.5973,1024.46,11111222 
TABS,ioos:station:wmo:42047:1,2016-04-05T18:00:00Z,27.8966,-93.5973,1024.14,11111222 
TABS,ioos:station:wmo:42047:1,2016-04-05T18:30:00Z,27.8966,-93.5973,1023.87,11111222 
TABS,ioos:station:wmo:42047:1,2016-04-05T19:00:00Z,27.8966,-93.5973,1023.51,11111222 
TABS,ioos:station:wmo:42047:1,2016-04-05T19:30:00Z,27.8966,-93.5973,1023.18,11111222 
TABS,ioos:station:wmo:42047:1,2016-04-05T20:00:00Z,27.8966,-93.5973,1022.78,11111222 
TABS,ioos:station:wmo:42047:1,2016-04-05T20:30:00Z,27.8966,-93.5973,1022.63,11111222 
TABS,ioos:station:wmo:42047:1,2016-04-05T21:00:00Z,27.8966,-93.5973,1022.32,11111222 
TABS,ioos:station:wmo:42047:1,2016-04-05T21:30:00Z,27.8966,-93.5973,1021.86,11111222 
TABS,ioos:station:wmo:42047:1,2016-04-05T22:00:00Z,27.8966,-93.5973,1021.31,11111222 
TABS,ioos:station:wmo:42047:1,2016-04-05T22:30:00Z,27.8966,-93.5973,1021.14,11111222 
TABS,ioos:station:wmo:42047:1,2016-04-05T23:00:00Z,27.8966,-93.5973,1020.96,11111222 
TABS,ioos:station:wmo:42047:1,2016-04-05T23:30:00Z,27.8966,-93.5973,1020.89,11111222 
TABS,ioos:station:wmo:42047:1,2016-04-06T00:00:00Z,27.8966,-93.5973,1020.75,11111222 
TABS,ioos:station:wmo:42047:1,2016-04-06T00:30:00Z,27.8966,-93.5973,1020.5,11111222 
TABS,ioos:station:wmo:42047:1,2016-04-06T01:00:00Z,27.8966,-93.5973,1020.46,11111222 
TABS,ioos:station:wmo:42047:1,2016-04-06T01:30:00Z,27.8966,-93.5973,1020.48,11111222 
TABS,ioos:station:wmo:42047:1,2016-04-06T02:00:00Z,27.8966,-93.5973,1020.49,11111222 
TABS,ioos:station:wmo:42047:1,2016-04-06T02:30:00Z,27.8966,-93.5973,1020.58,11111222 
TABS,ioos:station:wmo:42047:1,2016-04-06T03:00:00Z,27.8966,-93.5973,1020.74,11111222 
TABS,ioos:station:wmo:42047:1,2016-04-06T03:30:00Z,27.8966,-93.5973,1021.1,11111222 
TABS,ioos:station:wmo:42047:1,2016-04-06T04:00:00Z,27.8966,-93.5973,1020.66,11111222 
TABS,ioos:station:wmo:42047:1,2016-04-06T04:30:00Z,27.8966,-93.5973,1020.33,11111222 
TABS,ioos:station:wmo:42047:1,2016-04-06T05:00:00Z,27.8966,-93.5973,1020.45,11111222 
TABS,ioos:station:wmo:42047:1,2016-04-06T05:30:00Z,27.8966,-93.5973,1020.01,11111222 
TABS,ioos:station:wmo:42047:1,2016-04-06T06:00:00Z,27.8966,-93.5973,1019.73,11111222 
TABS,ioos:station:wmo:42047:1,2016-04-06T06:30:00Z,27.8966,-93.5973,1019.57,11111222 
TABS,ioos:station:wmo:42047:1,2016-04-06T07:00:00Z,27.8966,-93.5973,1019.16,11111222 
TABS,ioos:station:wmo:42047:1,2016-04-06T07:30:00Z,27.8966,-93.5973,1018.85,11111222 
TABS,ioos:station:wmo:42047:1,2016-04-06T08:00:00Z,27.8966,-93.5973,1018.17,11111222 
TABS,ioos:station:wmo:42047:1,2016-04-06T08:30:00Z,27.8966,-93.5973,1017.95,11111222 
TABS,ioos:station:wmo:42047:1,2016-04-06T09:00:00Z,27.8966,-93.5973,1017.71,11111222 
TABS,ioos:station:wmo:42047:1,2016-04-06T09:30:00Z,27.8966,-93.5973,1017.31,11111222 
TABS,ioos:station:wmo:42047:1,2016-04-06T10:00:00Z,27.8966,-93.5973,1016.99,11111222 
TABS,ioos:station:wmo:42047:1,2016-04-06T10:30:00Z,27.8966,-93.5973,1016.88,11111222 
TABS,ioos:station:wmo:42047:1,2016-04-06T11:00:00Z,27.8966,-93.5973,1017.02,11111222 
TABS,ioos:station:wmo:42047:1,2016-04-06T11:30:00Z,27.8966,-93.5973,1017.08,11111222 
TABS,ioos:station:wmo:42047:1,2016-04-06T12:00:00Z,27.8966,-93.5973,1017.61,11111222 
TABS,ioos:station:wmo:42047:1,2016-04-06T12:30:00Z,27.8966,-93.5973,1017.04,11111222 
TABS,ioos:station:wmo:42047:1,2016-04-06T13:00:00Z,27.8966,-93.5973,1017.66,11111222 
TABS,ioos:station:wmo:42047:1,2016-04-06T13:30:00Z,27.8966,-93.5973,1017.68,11111222 
TABS,ioos:station:wmo:42047:1,2016-04-06T14:00:00Z,27.8966,-93.5973,1018.27,11111222 
TABS,ioos:station:wmo:42047:1,2016-04-06T14:30:00Z,27.8966,-93.5973,1018.42,11111222 
TABS,ioos:station:wmo:42047:1,2016-04-06T15:00:00Z,27.8966,-93.5973,1018.36,11111222 
TABS,ioos:station:wmo:42047:1,2016-04-06T15:30:00Z,27.8966,-93.5973,1018.49,11111222 
TABS,ioos:station:wmo:42047:1,2016-04-06T16:00:00Z,27.8966,-93.5973,1018.81,11111222 
TABS,ioos:station:wmo:42047:1,2016-04-06T16:30:00Z,27.8966,-93.5973,1020.65,11111222 
TABS,ioos:station:wmo:42047:1,2016-04-06T17:00:00Z,27.8966,-93.5973,1020.6,11111222 
TABS,ioos:station:wmo:42047:1,2016-04-06T17:30:00Z,27.8966,-93.5973,1020.26,11111222 
TABS,ioos:station:wmo:42047:1,2016-04-06T18:00:00Z,27.8966,-93.5973,1020.11,11111222 
TABS,ioos:station:wmo:42047:1,2016-04-06T18:30:00Z,27.8966,-93.5973,1019.94,11111222 
TABS,ioos:station:wmo:42047:1,2016-04-06T19:00:00Z,27.8966,-93.5973,1019.52,11111222 
TABS,ioos:station:wmo:42047:1,2016-04-06T19:30:00Z,27.8966,-93.5973,1019.05,11111222 
TABS,ioos:station:wmo:42047:1,2016-04-06T20:00:00Z,27.8966,-93.5973,1018.33,11111222 
TABS,ioos:station:wmo:42047:1,2016-04-06T20:30:00Z,27.8966,-93.5973,1017.69,11111222 
TABS,ioos:station:wmo:42047:1,2016-04-06T21:00:00Z,27.8966,-93.5973,1017.03,11111222 
TABS,ioos:station:wmo:42047:1,2016-04-06T21:30:00Z,27.8966,-93.5973,1016.76,11111222 
TABS,ioos:station:wmo:42047:1,2016-04-06T22:00:00Z,27.8966,-93.5973,1016.63,11111222 
TABS,ioos:station:wmo:42047:1,2016-04-06T22:30:00Z,27.8966,-93.5973,1016.51,11111222 
TABS,ioos:station:wmo:42047:1,2016-04-06T23:00:00Z,27.8966,-93.5973,1017.08,11111222 
TABS,ioos:station:wmo:42047:1,2016-04-06T23:30:00Z,27.8966,-93.5973,1017.02,11111222 
TABS,ioos:station:wmo:42047:1,2016-04-07T00:00:00Z,27.8966,-93.5973,1016.81,11111222 
TABS,ioos:station:wmo:42047:1,2016-04-07T00:30:00Z,27.8966,-93.5973,1016.75,11111222 
TABS,ioos:station:wmo:42047:1,2016-04-07T01:00:00Z,27.8966,-93.5973,1016.78,11111222 
TABS,ioos:station:wmo:42047:1,2016-04-07T01:30:00Z,27.8966,-93.5973,1017.23,11111222 
TABS,ioos:station:wmo:42047:1,2016-04-07T02:00:00Z,27.8966,-93.5973,1017.33,11111222 
TABS,ioos:station:wmo:42047:1,2016-04-07T02:30:00Z,27.8966,-93.5973,1017.52,11111222 
TABS,ioos:station:wmo:42047:1,2016-04-07T03:00:00Z,27.8966,-93.5973,1017.74,11111222 
TABS,ioos:station:wmo:42047:1,2016-04-07T03:30:00Z,27.8966,-93.5973,1017.89,11111222 
TABS,ioos:station:wmo:42047:1,2016-04-07T04:00:00Z,27.8966,-93.5973,1017.97,11111222 
TABS,ioos:station:wmo:42047:1,2016-04-07T04:30:00Z,27.8966,-93.5973,1017.81,11111222 
TABS,ioos:station:wmo:42047:1,2016-04-07T05:00:00Z,27.8966,-93.5973,1017.73,11111222 
TABS,ioos:station:wmo:42047:1,2016-04-07T05:30:00Z,27.8966,-93.5973,1017.74,11111222 
TABS,ioos:station:wmo:42047:1,2016-04-07T06:00:00Z,27.8966,-93.5973,1017.59,11111222 
TABS,ioos:station:wmo:42047:1,2016-04-07T06:30:00Z,27.8966,-93.5973,1017.39,11111222 
TABS,ioos:station:wmo:42047:1,2016-04-07T07:00:00Z,27.8966,-93.5973,1017.19,11111222 
TABS,ioos:station:wmo:42047:1,2016-04-07T07:30:00Z,27.8966,-93.5973,1017.09,11111222 
TABS,ioos:station:wmo:42047:1,2016-04-07T08:00:00Z,27.8966,-93.5973,1016.75,11111222 
TABS,ioos:station:wmo:42047:1,2016-04-07T08:30:00Z,27.8966,-93.5973,1016.38,11111222 
TABS,ioos:station:wmo:42047:1,2016-04-07T09:00:00Z,27.8966,-93.5973,1016.31,11111222 
TABS,ioos:station:wmo:42047:1,2016-04-07T09:30:00Z,27.8966,-93.5973,1016.53,11111222 
TABS,ioos:station:wmo:42047:1,2016-04-07T10:00:00Z,27.8966,-93.5973,1016.74,11111222 
TABS,ioos:station:wmo:42047:1,2016-04-07T10:30:00Z,27.8966,-93.5973,1016.91,11111222 
TABS,ioos:station:wmo:42047:1,2016-04-07T11:00:00Z,27.8966,-93.5973,1017.06,11111222 
TABS,ioos:station:wmo:42047:1,2016-04-07T11:30:00Z,27.8966,-93.5973,1017.24,11111222 
TABS,ioos:station:wmo:42047:1,2016-04-07T12:00:00Z,27.8966,-93.5973,1017.4,11111222 
TABS,ioos:station:wmo:42047:1,2016-04-07T12:30:00Z,27.8966,-93.5973,1017.63,11111222 
TABS,ioos:station:wmo:42047:1,2016-04-07T13:00:00Z,27.8966,-93.5973,1017.81,11111222 
TABS,ioos:station:wmo:42047:1,2016-04-07T13:30:00Z,27.8966,-93.5973,1017.8,11111222 
TABS,ioos:station:wmo:42047:1,2016-04-07T14:00:00Z,27.8966,-93.5973,1018.01,11111222 
TABS,ioos:station:wmo:42047:1,2016-04-07T14:30:00Z,27.8966,-93.5973,1018.04,11111222 
TABS,ioos:station:wmo:42047:1,2016-04-07T15:00:00Z,27.8966,-93.5973,1018.01,11111222 
TABS,ioos:station:wmo:42047:1,2016-04-07T15:30:00Z,27.8966,-93.5973,1018.32,11111222 
TABS,ioos:station:wmo:42047:1,2016-04-07T16:00:00Z,27.8966,-93.5973,1018.27,11111222 
TABS,ioos:station:wmo:42047:1,2016-04-07T16:30:00Z,27.8966,-93.5973,1018.09,11111222 
TABS,ioos:station:wmo:42047:1,2016-04-07T17:00:00Z,27.8966,-93.5973,1017.84,11111222 
TABS,ioos:station:wmo:42047:1,2016-04-07T17:30:00Z,27.8966,-93.5973,1017.57,11111222 
TABS,ioos:station:wmo:42047:1,2016-04-07T18:00:00Z,27.8966,-93.5973,1017.15,11111222 
TABS,ioos:station:wmo:42047:1,2016-04-07T18:30:00Z,27.8966,-93.5973,1016.94,11111222 
TABS,ioos:station:wmo:42047:1,2016-04-07T19:00:00Z,27.8966,-93.5973,1016.75,11111222 
TABS,ioos:station:wmo:42047:1,2016-04-07T19:30:00Z,27.8966,-93.5973,1016.35,11111222 
TABS,ioos:station:wmo:42047:1,2016-04-07T20:00:00Z,27.8966,-93.5973,1016.24,11111222 
TABS,ioos:station:wmo:42047:1,2016-04-07T20:30:00Z,27.8966,-93.5973,1016.06,11111222 
TABS,ioos:station:wmo:42047:1,2016-04-07T21:00:00Z,27.8966,-93.5973,1016.02,11111222 
TABS,ioos:station:wmo:42047:1,2016-04-07T21:30:00Z,27.8966,-93.5973,1015.9,11111222 
TABS,ioos:station:wmo:42047:1,2016-04-07T22:00:00Z,27.8966,-93.5973,1015.58,11111222 
TABS,ioos:station:wmo:42047:1,2016-04-07T22:30:00Z,27.8966,-93.5973,1015.71,11111222 
TABS,ioos:station:wmo:42047:1,2016-04-07T23:00:00Z,27.8966,-93.5973,1015.78,11111222 
TABS,ioos:station:wmo:42047:1,2016-04-07T23:30:00Z,27.8966,-93.5973,1015.89,11111222 
TABS,ioos:station:wmo:42047:1,2016-04-08T00:00:00Z,27.8966,-93.5973,1015.9,11111222 
TABS,ioos:station:wmo:42047:1,2016-04-08T00:30:00Z,27.8966,-93.5973,1015.76,11111222 
TABS,ioos:station:wmo:42047:1,2016-04-08T01:00:00Z,27.8966,-93.5973,1015.5,11111222 
TABS,ioos:station:wmo:42047:1,2016-04-08T01:30:00Z,27.8966,-93.5973,1015.6,11111222 
TABS,ioos:station:wmo:42047:1,2016-04-08T02:00:00Z,27.8966,-93.5973,1016.27,11111222 
TABS,ioos:station:wmo:42047:1,2016-04-08T02:30:00Z,27.8966,-93.5973,1016.91,11111222 
TABS,ioos:station:wmo:42047:1,2016-04-08T03:00:00Z,27.8966,-93.5973,1017.15,11111222 
TABS,ioos:station:wmo:42047:1,2016-04-08T03:30:00Z,27.8966,-93.5973,1017.37,11111222 
TABS,ioos:station:wmo:42047:1,2016-04-08T04:00:00Z,27.8966,-93.5973,1017.31,11111222 
TABS,ioos:station:wmo:42047:1,2016-04-08T04:30:00Z,27.8966,-93.5973,1017.31,11111222 
TABS,ioos:station:wmo:42047:1,2016-04-08T05:00:00Z,27.8966,-93.5973,1017.32,11111222 
TABS,ioos:station:wmo:42047:1,2016-04-08T05:30:00Z,27.8966,-93.5973,1017.49,11111222 
TABS,ioos:station:wmo:42047:1,2016-04-08T06:00:00Z,27.8966,-93.5973,1017.33,11111222 
TABS,ioos:station:wmo:42047:1,2016-04-08T06:30:00Z,27.8966,-93.5973,1017.53,11111222 
TABS,ioos:station:wmo:42047:1,2016-04-08T07:00:00Z,27.8966,-93.5973,1017.38,11111222 
TABS,ioos:station:wmo:42047:1,2016-04-08T07:30:00Z,27.8966,-93.5973,1017.18,11111222 
TABS,ioos:station:wmo:42047:1,2016-04-08T08:00:00Z,27.8966,-93.5973,1016.98,11111222 
TABS,ioos:station:wmo:42047:1,2016-04-08T08:30:00Z,27.8966,-93.5973,1017.05,11111222 
TABS,ioos:station:wmo:42047:1,2016-04-08T09:00:00Z,27.8966,-93.5973,1016.61,11111222 
TABS,ioos:station:wmo:42047:1,2016-04-08T09:30:00Z,27.8966,-93.5973,1016.68,11111222 
TABS,ioos:station:wmo:42047:1,2016-04-08T10:00:00Z,27.8966,-93.5973,1016.8,11111222 
TABS,ioos:station:wmo:42047:1,2016-04-08T10:30:00Z,27.8966,-93.5973,1016.96,11111222 
TABS,ioos:station:wmo:42047:1,2016-04-08T11:00:00Z,27.8966,-93.5973,1017.0,11111222 
TABS,ioos:station:wmo:42047:1,2016-04-08T11:30:00Z,27.8966,-93.5973,1017.41,11111222 
TABS,ioos:station:wmo:42047:1,2016-04-08T12:00:00Z,27.8966,-93.5973,1017.97,11111222 
TABS,ioos:station:wmo:42047:1,2016-04-08T12:30:00Z,27.8966,-93.5973,1018.6,11111222 
TABS,ioos:station:wmo:42047:1,2016-04-08T13:00:00Z,27.8966,-93.5973,1019.14,11111222 
TABS,ioos:station:wmo:42047:1,2016-04-08T13:30:00Z,27.8966,-93.5973,1019.26,11111222 
TABS,ioos:station:wmo:42047:1,2016-04-08T14:00:00Z,27.8966,-93.5973,1019.78,11111222 
TABS,ioos:station:wmo:42047:1,2016-04-08T14:30:00Z,27.8966,-93.5973,1020.19,11111222 
TABS,ioos:station:wmo:42047:1,2016-04-08T15:00:00Z,27.8966,-93.5973,1020.47,11111222 
TABS,ioos:station:wmo:42047:1,2016-04-08T15:30:00Z,27.8966,-93.5973,1020.71,11111222 
TABS,ioos:station:wmo:42047:1,2016-04-08T16:00:00Z,27.8966,-93.5973,1021.02,11111222 